[[{"header":{"parameterUnit":"m.s-1","parameterCategory":1,"la1":30.2991,"la2":30.254,"lo1":-89.0895,"lo2":-89.0444,"dy":0.0017,"dx":0.0017,"nx":28,"ny":28,"refTime":"2023-07-24T03:00:00:Z","depth":0,"parameterNumber":2,"parameterNumberName":"U-component_of_WINDS"},"data":[0,0,0,0,0,0,0,0,0,0,0,0,0,0,0,0,0,0,0,0,0,0,0,0,0,0,0,0,0,0,0,0,0,0,0,0,0,0,0,0,0,0,0,0,0,0,0,0,0,0,0,0,0,0,0,0,0,0,-1.827,-1.8269,0,-1.8196,-1.8196,-1.8195,-1.8121,-1.812,-1.8119,-1.8118,-1.8041,-1.804,-1.8039,0,0,0,0,0,0,0,0,0,0,0,0,0,-1.8347,-1.8346,-1.827,-1.8269,-1.8268,-1.8197,-1.8195,-1.8194,-1.8121,-1.812,-1.8118,-1.8117,-1.8041,-1.804,-1.8039,0,0,0,0,0,0,0,0,0,0,0,0,0,-1.8297,-1.8345,-1.827,-1.8223,-1.8218,-1.8197,-1.8195,-1.8194,-1.8121,-1.8119,-1.8118,-1.8117,-1.8042,-1.804,-1.8038,-1.8058,0,0,-1.8033,-1.8033,0,0,0,0,0,0,0,0,-1.83,-1.8294,-1.8231,-1.8226,-1.8221,-1.8166,-1.8194,-1.8148,-1.8121,-1.8158,-1.8118,-1.8116,-1.8084,-1.8079,-1.8068,-1.8054,-1.8051,-1.8033,-1.8032,-1.8031,-1.8031,0,0,0,0,0,0,0,-1.8304,-1.8297,-1.8241,-1.823,-1.8224,-1.8205,-1.8196,-1.8185,-1.813,-1.8154,-1.8149,-1.8141,-1.8081,-1.807,-1.8066,-1.805,-1.8033,-1.8032,-1.8031,-1.803,-1.8049,-1.805,0,0,0,0,0,0,-1.8314,-1.8301,-1.8243,-1.8239,-1.8258,-1.8205,-1.8195,-1.8185,-1.813,-1.812,-1.8143,-1.8138,-1.8073,-1.8068,-1.8063,-1.8082,-1.8031,-1.803,-1.8029,-1.8048,-1.8049,-1.8051,0,0,0,0,0,0,-1.8316,-1.831,-1.8246,-1.8268,-1.8259,-1.8205,-1.8194,-1.8184,-1.8173,-1.8121,-1.8111,-1.8142,-1.8072,-1.8065,-1.806,-1.8078,-1.8029,-1.8028,-1.8046,-1.8048,-1.805,-1.8121,0,0,0,0,0,0,-1.8319,-1.8311,-1.8318,-1.8269,-1.8258,-1.8245,-1.8196,-1.8184,-1.8171,-1.8164,-1.8117,-1.8108,-1.807,-1.8063,-1.8058,-1.8075,-1.8026,-1.8044,-1.8047,-1.8049,-1.8117,-1.8126,-1.8133,0,0,0,0,0,-1.8322,-1.834,-1.8319,-1.8312,-1.8265,-1.8246,-1.824,-1.8196,-1.8173,-1.8179,-1.8146,-1.811,-1.8077,-1.8063,-1.8057,-1.8074,-1.8042,-1.8046,-1.8049,-1.8113,-1.8124,-1.8133,0,0,0,0,0,0,-1.8392,-1.8333,-1.8308,-1.8312,-1.8285,-1.8234,-1.824,-1.8209,-1.8187,-1.8182,-1.8129,-1.8119,-1.812,-1.8096,-1.8081,-1.809,-1.8055,-1.8057,-1.8106,-1.8115,-1.8123,-1.8129,-1.8025,0,0,0,0,0,-1.8408,-1.8398,-1.8347,-1.8355,-1.8343,-1.8294,-1.8284,-1.8253,-1.8223,-1.8211,-1.8177,-1.8149,-1.8132,-1.8122,-1.8104,-1.8113,-1.8102,-1.8122,-1.813,-1.8137,-1.814,-1.8144,-1.8152,-1.8062,-1.8062,-1.8062,0,0,-1.8441,-1.8408,-1.8404,-1.8368,-1.8343,-1.8334,-1.8285,-1.8277,-1.8269,-1.8209,-1.8203,-1.8177,-1.8142,-1.8145,-1.8144,-1.8125,-1.8162,-1.8141,-1.8147,-1.8146,-1.8148,-1.8157,-1.8164,-1.8065,-1.8064,-1.8064,0,0,-1.8496,-1.847,-1.8474,-1.8451,-1.8414,-1.8382,-1.8383,-1.8338,-1.8318,-1.8311,-1.8266,-1.8256,-1.8229,-1.8206,-1.8191,-1.8239,-1.8205,-1.8235,-1.8277,-1.8281,-1.8288,-1.8294,-1.8312,-1.8319,-1.8237,-1.8238,-1.8238,0,-1.8542,-1.8526,-1.848,-1.8475,-1.8461,-1.8407,-1.8411,-1.839,-1.835,-1.8341,-1.832,-1.8285,-1.8258,-1.8255,-1.8267,-1.8256,-1.8256,-1.824,-1.8291,-1.8296,-1.8301,-1.8318,-1.8325,-1.8241,-1.8241,-1.8241,-1.824,0,-1.8584,-1.8574,-1.8581,-1.8545,-1.8531,-1.8531,-1.8484,-1.8476,-1.8447,-1.8417,-1.8411,-1.8376,-1.835,-1.8347,-1.8318,-1.834,-1.833,-1.8301,-1.8264,-1.8315,-1.8329,-1.8335,-1.8247,-1.8246,-1.8244,-1.8243,0,0,-1.868,-1.8619,-1.8623,-1.8606,-1.8563,-1.8554,-1.8551,-1.8527,-1.8521,-1.8495,-1.8492,-1.8471,-1.8444,-1.8427,-1.8395,-1.8399,-1.844,-1.8369,-1.8367,-1.8384,-1.8463,-1.8486,-1.8494,-1.8417,-1.8418,-1.8419,-1.8466,0,-1.8728,-1.8721,-1.868,-1.8684,-1.8675,-1.8624,-1.8622,-1.8595,-1.8567,-1.8555,-1.8524,-1.851,-1.8476,-1.8465,-1.8467,-1.8435,-1.8455,-1.8431,-1.8414,-1.8414,-1.8425,-1.8501,-1.8524,-1.857,-1.8472,-1.8473,-1.8473,0,-1.8783,-1.8762,-1.8766,-1.8724,-1.8718,-1.8717,-1.8692,-1.8681,-1.8649,-1.8629,-1.8611,-1.8575,-1.857,-1.8536,-1.8528,-1.8512,-1.8503,-1.8486,-1.8487,-1.8484,-1.8447,-1.85,-1.8584,-1.8591,-1.8482,-1.8481,-1.848,0,-1.8854,-1.8826,-1.8825,-1.8812,-1.8763,-1.8763,-1.8743,-1.871,-1.8698,-1.8676,-1.8668,-1.8646,-1.8634,-1.8617,-1.8576,-1.8555,-1.8573,-1.8536,-1.8557,-1.8558,-1.8563,-1.8563,-1.8646,-1.8557,-1.8556,-1.8556,-1.8556,0,-1.8912,-1.8917,-1.8857,-1.8856,-1.886,-1.8813,-1.8818,-1.8792,-1.8764,-1.8757,-1.8712,-1.8707,-1.8653,-1.8642,-1.861,-1.8609,-1.8603,-1.8587,-1.8578,-1.8591,-1.8593,-1.8584,-1.858,-1.8558,-1.8558,-1.8557,-1.8557,0,-1.8992,-1.8952,-1.8948,-1.8902,-1.889,-1.8895,-1.8855,-1.8853,-1.8823,-1.8816,-1.8811,-1.8764,-1.8749,-1.8707,-1.868,-1.8659,-1.8667,-1.8651,-1.8678,-1.8672,-1.8696,-1.8694,-1.8776,-1.8785,-1.869,-1.8691,-1.8692,0,-1.9032,-1.9034,-1.8989,-1.8982,-1.8963,-1.8952,-1.894,-1.8894,-1.8883,-1.8849,-1.8851,-1.8832,-1.8815,-1.8793,-1.8756,-1.8736,-1.8719,-1.875,-1.8716,-1.8729,-1.872,-1.8721,-1.8721,-1.8757,-1.8758,-1.8759,-1.876,0,-1.9107,-1.9087,-1.9072,-1.9051,-1.9038,-1.9018,-1.8996,-1.8993,-1.8941,-1.8932,-1.8916,-1.8903,-1.8877,-1.8859,-1.8833,-1.8812,-1.8778,-1.8771,-1.8775,-1.8788,-1.8804,-1.8796,-1.8698,-1.8769,-1.8768,-1.8768,-1.8767,-1.8767,-1.9168,-1.9168,-1.9137,-1.9122,-1.91,-1.9081,-1.9077,-1.9047,-1.9033,-1.9009,-1.8982,-1.897,-1.8939,-1.8901,-1.8883,-1.8872,-1.8854,-1.8859,-1.8861,-1.8863,-1.8869,-1.8806,-1.8867,-1.8867,-1.8867,-1.8866,-1.8866,0,-1.9241,-1.9219,-1.9205,-1.9177,-1.9165,-1.9135,-1.9109,-1.9101,-1.9091,-1.9065,-1.905,-1.9032,-1.9015,-1.8978,-1.8957,-1.8956,-1.894,-1.8952,-1.8952,-1.8948,-1.8886,-1.8885,-1.8966,-1.8966,-1.8966,-1.8965,-1.8965,-1.8965,-1.9278,-1.9277,-1.9254,-1.9242,-1.9219,-1.9207,-1.9195,-1.9177,-1.9157,-1.914,-1.9126,-1.9101,-1.9071,-1.9049,-1.9032,-1.9021,-1.9016,-1.9033,-1.9018,-1.8961,-1.8952,-1.8943,-1.8942,-1.9032,-1.9033,-1.908,-1.9081,-1.9081]},{"header":{"parameterUnit":"m.s-1","parameterCategory":1,"la1":30.2991,"la2":30.254,"lo1":-89.0895,"lo2":-89.0444,"dy":0.0017,"dx":0.0017,"nx":28,"ny":28,"refTime":"2023-07-24T03:00:00:Z","depth":0,"parameterNumber":3,"parameterNumberName":"V-component_of_WINDS"},"data":[0,0,0,0,0,0,0,0,0,0,0,0,0,0,0,0,0,0,0,0,0,0,0,0,0,0,0,0,0,0,0,0,0,0,0,0,0,0,0,0,0,0,0,0,0,0,0,0,0,0,0,0,0,0,0,0,0,0,1.2863,1.2864,0,1.2899,1.29,1.29,1.2931,1.2931,1.2932,1.2932,1.2966,1.2967,1.2968,0,0,0,0,0,0,0,0,0,0,0,0,0,1.2818,1.2819,1.2863,1.2864,1.2864,1.2899,1.29,1.29,1.2931,1.2931,1.2932,1.2932,1.2966,1.2967,1.2968,0,0,0,0,0,0,0,0,0,0,0,0,0,1.2844,1.2819,1.2863,1.2884,1.2886,1.2899,1.29,1.29,1.2931,1.2931,1.2932,1.2932,1.2966,1.2967,1.2968,1.2963,0,0,1.297,1.2971,0,0,0,0,0,0,0,0,1.2843,1.2846,1.288,1.2882,1.2885,1.2911,1.2897,1.2921,1.2931,1.2914,1.2932,1.2933,1.2947,1.295,1.2955,1.2964,1.2966,1.2971,1.2971,1.2971,1.2972,0,0,0,0,0,0,0,1.2841,1.2844,1.2877,1.2881,1.2884,1.289,1.2895,1.2901,1.2927,1.2915,1.2918,1.2922,1.2949,1.2955,1.2956,1.2966,1.2971,1.2971,1.2972,1.2972,1.2971,1.2971,0,0,0,0,0,0,1.2836,1.2843,1.2876,1.2878,1.2865,1.2891,1.2895,1.2902,1.2927,1.2932,1.2921,1.2923,1.2953,1.2955,1.2958,1.2952,1.2971,1.2972,1.2973,1.2972,1.2971,1.2971,0,0,0,0,0,0,1.2835,1.2839,1.2875,1.2861,1.2866,1.2891,1.2898,1.2903,1.2908,1.2932,1.2936,1.2922,1.2953,1.2957,1.2961,1.2954,1.2973,1.2973,1.2972,1.2972,1.2971,1.2942,0,0,0,0,0,0,1.2834,1.2838,1.2837,1.2861,1.2867,1.2878,1.2898,1.2903,1.291,1.2913,1.2934,1.2938,1.2954,1.296,1.2962,1.2956,1.2974,1.2973,1.2972,1.2971,1.2944,1.294,1.2938,0,0,0,0,0,1.2832,1.2828,1.2837,1.2841,1.2866,1.2878,1.2881,1.29,1.2909,1.2908,1.2923,1.2937,1.2955,1.296,1.2963,1.2957,1.2974,1.2972,1.2971,1.2945,1.2941,1.2938,0,0,0,0,0,0,1.2802,1.2831,1.2842,1.2845,1.2859,1.2883,1.2882,1.2896,1.2906,1.2908,1.2931,1.2935,1.2937,1.2947,1.2953,1.2952,1.2966,1.2965,1.2945,1.2942,1.2939,1.2935,1.2975,0,0,0,0,0,1.2796,1.2803,1.2828,1.2829,1.2835,1.2857,1.2863,1.2877,1.2891,1.2897,1.2912,1.2925,1.2933,1.2938,1.2947,1.2946,1.295,1.2943,1.294,1.2937,1.2936,1.2935,1.2931,1.2966,1.2966,1.2967,0,0,1.2783,1.28,1.2803,1.2823,1.2835,1.2841,1.2862,1.2868,1.2872,1.2898,1.2903,1.2914,1.293,1.2931,1.2933,1.294,1.2927,1.2936,1.2933,1.2933,1.2933,1.293,1.2927,1.2966,1.2966,1.2966,0,0,1.2762,1.2776,1.2778,1.2789,1.2808,1.2822,1.2823,1.2845,1.2853,1.2859,1.2878,1.2883,1.2898,1.2908,1.2915,1.2898,1.2911,1.29,1.2883,1.2882,1.2879,1.2876,1.2869,1.2866,1.2899,1.2899,1.2899,0,1.2743,1.2754,1.2776,1.2781,1.2789,1.2813,1.2813,1.2824,1.2843,1.2848,1.2856,1.2874,1.2886,1.289,1.2885,1.2891,1.2891,1.2897,1.2878,1.2876,1.2874,1.2867,1.2864,1.2897,1.2897,1.2897,1.2898,0,1.273,1.2737,1.2736,1.2755,1.2763,1.2765,1.2787,1.2792,1.2805,1.2818,1.2823,1.2839,1.2851,1.2853,1.2866,1.2858,1.2862,1.2874,1.2888,1.2868,1.2862,1.286,1.2895,1.2896,1.2896,1.2896,0,0,1.269,1.2722,1.2721,1.2729,1.2751,1.2757,1.276,1.2773,1.2776,1.2789,1.2791,1.2803,1.2814,1.2822,1.2836,1.2835,1.2818,1.2846,1.2847,1.2839,1.2809,1.2799,1.2796,1.2828,1.2827,1.2827,1.2807,0,1.2672,1.2681,1.27,1.2702,1.2708,1.2731,1.2733,1.2746,1.2759,1.2766,1.278,1.2787,1.2801,1.2806,1.2806,1.282,1.2812,1.2822,1.2829,1.2829,1.2823,1.2793,1.2782,1.2763,1.2805,1.2805,1.2805,0,1.2652,1.2664,1.2666,1.2687,1.2691,1.2693,1.2705,1.2712,1.2727,1.2736,1.2745,1.276,1.2764,1.2778,1.2782,1.2789,1.2793,1.28,1.28,1.28,1.2814,1.2791,1.2758,1.2754,1.2801,1.2802,1.2802,0,1.2622,1.2638,1.2642,1.2648,1.2673,1.2674,1.2684,1.27,1.2706,1.2716,1.272,1.2731,1.2737,1.2744,1.2762,1.2771,1.2764,1.278,1.2771,1.277,1.2767,1.2767,1.2733,1.2772,1.2772,1.2772,1.2772,0,1.2599,1.2599,1.2628,1.263,1.263,1.2653,1.2652,1.2664,1.2678,1.2682,1.2702,1.2705,1.2729,1.2734,1.2748,1.2749,1.2752,1.2758,1.2762,1.2756,1.2755,1.2758,1.2759,1.2771,1.2772,1.2772,1.2772,0,1.2564,1.2584,1.2589,1.2612,1.2617,1.2617,1.2636,1.2638,1.2652,1.2656,1.2659,1.268,1.2688,1.2707,1.2719,1.2728,1.2724,1.2732,1.2719,1.2721,1.2711,1.2711,1.2676,1.2672,1.2715,1.2715,1.2714,0,1.2547,1.2548,1.2571,1.2575,1.2585,1.2592,1.2598,1.262,1.2625,1.2642,1.2642,1.2651,1.2659,1.267,1.2686,1.2695,1.2702,1.2689,1.2703,1.2697,1.27,1.2699,1.2698,1.2685,1.2685,1.2684,1.2684,0,1.2515,1.2525,1.2534,1.2545,1.2552,1.2563,1.2574,1.2576,1.26,1.2605,1.2613,1.262,1.2632,1.2641,1.2652,1.2662,1.2676,1.268,1.2678,1.2671,1.2663,1.2665,1.2709,1.268,1.268,1.2681,1.2681,1.2681,1.2488,1.2489,1.2505,1.2514,1.2525,1.2535,1.2538,1.2552,1.256,1.2572,1.2584,1.259,1.2605,1.2622,1.263,1.2635,1.2643,1.264,1.2639,1.2638,1.2635,1.2663,1.2637,1.2638,1.2638,1.2638,1.2638,0,1.2456,1.2467,1.2475,1.249,1.2497,1.2511,1.2524,1.2528,1.2534,1.2546,1.2554,1.2563,1.2571,1.2588,1.2597,1.2597,1.2604,1.2599,1.2598,1.26,1.2628,1.2628,1.2593,1.2593,1.2593,1.2593,1.2593,1.2593,1.2439,1.2442,1.2453,1.2461,1.2472,1.2479,1.2485,1.2494,1.2504,1.2513,1.252,1.2531,1.2545,1.2555,1.2563,1.2568,1.257,1.2562,1.2568,1.2594,1.2598,1.2602,1.2602,1.2562,1.2562,1.254,1.254,1.2539]}]]